Location: Poughquag
(41.6090°N, 73.6820°W)
Time: 14:56:47
(UTC-04:00)

Transit 2A - Pass Details

Date: 03 June 2020
Orbit: 592 x 967 km, 66.7° (Epoch: 05 July)

Event Time Altitude Azimuth Distance (km) Brightness Sun altitude
Rises 23:26:18 0° 318° (NW) 3,601 10.7 -22.8°
Reaches altitude 10° 23:29:15 10° 306° (NW) 2,682 9.6 -23.0°
Maximum altitude 23:34:15 25° 253° (WSW) 1,833 7.9 -23.4°
Enters shadow 23:36:28 21° 224° (SW) 2,033 7.9 -23.5°
